Regional Weather Roundup
Issued by NWS

Home | Current Version | Previous Version | Graphics & Text | Print | Product List | Glossary On
Versions: 1 2 3 4 5 6 7 8 9 10 11 12 13 14 15 16 17 18 19 20 21 22 23 24 25 26 27 28 29 30 31 32 33 34 35 36 37 38 39 40 41 42 43 44 45 46 47 48 49 50
517
ASUS45 KBOU 260507
RWRCO

WEATHER ROUNDUP FOR COLORADO
NATIONAL WEATHER SERVICE DENVER/BOULDER CO
1100 PM MDT WED MAY 25 2016

NOTE: "FAIR" INDICATES FEW OR NO CLOUDS BELOW 12000 FEET WITH NO
SIGNIFICANT WEATHER AND/OR OBSTRUCTIONS TO VISIBILITY.

COZ001>005-013-030-031-260600-
...NORTHWEST COLORADO...

CITY           SKY/WX    TMP DP  RH WIND       PRES   REMARKS
CRAIG          FAIR      49  32  52 SW5       30.08R
HAYDEN         FAIR      43  28  56 CALM      30.08R
MEEKER         FAIR      49  27  42 VRB6      30.06R
MOUNT WERNER   NOT AVBL
STEAMBOAT SPGS FAIR      44  28  51 CALM      30.08R
WALDEN         FAIR      36  25  64 E5        30.15S
$$

COZ006>008-011-260600-
...WEST CENTRAL VALLEYS...

CITY           SKY/WX    TMP DP  RH WIND       PRES   REMARKS
GRAND JUNCTION FAIR      56  18  22 SE5       29.94R
MONTROSE       FAIR      59  21  23 SE6       30.00F
EAGLE          FAIR      46  21  36 E6        30.08S
RIFLE          FAIR      53  24  32 VRB6      30.00R
DELTA          FAIR      60  18  19 NE6       29.98R
NUCLA          FAIR      57  19  23 E7        30.03F
$$

COZ017>023-064>068-260600-
...SOUTHWEST COLORADO...

CITY           SKY/WX    TMP DP  RH WIND       PRES   REMARKS
DURANGO        FAIR      50  23  34 N5        30.05R
CORTEZ         FAIR      50  26  39 E7        30.01R
PAGOSA SPRINGS CLOUDY    57  19  23 SE5G20    30.14R
TELLURIDE      MOCLDY    46  17  32 SE5       30.18S
WOLF CREEK PAS FLURRIES  32  21  64 SW13G24   30.36R WCI  22
$$

COZ009-010-012-014-032>034-037-058>063-260600-
...CENTRAL COLORADO...

CITY           SKY/WX    TMP DP  RH WIND       PRES   REMARKS
ASPEN          FAIR      43  19  38 S9        30.12R
BUENA VISTA    FAIR      47  11  22 W6        30.13S
COPPER MTN     NOT AVBL
BERTHOUD PASS  FAIR      30  21  69 W5        30.33F WCI  25
COTTONWOOD PAS FAIR      46   1  15 SW8       30.22S
GUNNISON       FAIR      46  18  31 N12       30.12F
KREMMLING      FAIR      41  21  45 CALM      30.12R
LEADVILLE      FAIR      31   9  39 NE3       30.21R
MONARCH PASS   FAIR      34  10  37 NW7       30.41S WCI  28
SALIDA         FAIR      48  15  26 W6        30.19R
SUNLIGHT       FAIR      41  16  36 CALM      30.28S
WILKERSON PASS FAIR      37  -2  18 W6        30.31F
$$

COZ069>075-260600-
...SAN LUIS VALLEY/SANGRE DE CRISTO MOUNTAINS...

CITY           SKY/WX    TMP DP  RH WIND       PRES   REMARKS
ALAMOSA        FAIR      46  21  37 W6        30.11R
LA VETA PASS   FAIR      45  12  26 S9        30.25S
SAGUACHE       FAIR      43  18  36 W6        30.13S
$$

COZ035-036-038>040-260600-
...NORTHERN COLORADO FRONT RANGE...

CITY           SKY/WX    TMP DP  RH WIND       PRES   REMARKS
DENVER INTL AP MOCLDY    52  43  71 E10       29.99R
DMNS CITY PARK   N/A     55  42  62 N13       30.00S
AURORA         MOCLDY    51  44  76 NE9       30.00S
FRONT RANGE AP NOT AVBL
ERIE MUNI ARPT FAIR      55  43  63 N5        30.01R
BOULDER MUN AP FAIR      55  41  58 N6        30.03R
CENTENNIAL     MOCLDY    54  42  64 NE5       30.01R
BROOMFIELD     NOT AVBL
FORT COLLINS   FAIR      54  41  62 E6        30.03R
LONGMONT       FAIR      56  45  65 N5        30.05R
$$

COZ041-046-047-076>085-087-088-260600-
...PIKES PEAK/PALMER DIVIDE AND SOUTHERN FOOTHILLS...

CITY           SKY/WX    TMP DP  RH WIND       PRES   REMARKS
COLO. SPRINGS  FAIR      52  26  36 NE9       30.01R
A. F. ACADEMY  FAIR      50  23  34 NW9       30.03R
SCHRIEVER AFB  NOT AVBL
ELLICOTT       LGT RAIN N/A N/A N/A E13       30.00R
FALCON         FAIR      51  29  42 N10       30.06R
FORT CARSON    FAIR      62  13  15 W10       29.97R
LIMON          FAIR      53  41  63 E16       29.98R
MONUMENT HILL  FAIR      52  36  54 NE5       30.08S
TRINIDAD       FAIR      52  19  27 W13       29.99R
$$

COZ042>045-048>051-090-091-260600-
...NORTHEAST COLORADO...

CITY           SKY/WX    TMP DP  RH WIND       PRES   REMARKS
GREELEY ARPT   FAIR      54  41  62 N9        30.01R
AKRON          FAIR      54  44  69 N10       29.98R
BURLINGTON     FAIR      51  43  74 NE9       29.94R
WRAY           FAIR      54  46  76 NE5       29.94F
STERLING       FAIR      52  46  82 N7        29.96S
HOLYOKE        NOT AVBL
FORT MORGAN    FAIR      53  42  67 NE9       29.99R
$$

COZ086-089-092>099-260600-
...SOUTHEAST COLORADO...

CITY           SKY/WX    TMP DP  RH WIND       PRES   REMARKS
PUEBLO         FAIR      64  14  14 NW14      29.90R
LA JUNTA       FAIR      59  31  34 N7        29.86S
LAMAR          FAIR      56  37  49 E5        29.83R
SPRINGFIELD      N/A     53  29  39 SW6       29.89S
$$




USA.gov is the U.S. government's official web portal to all federal, state and local government web resources and services.